Meridian, MS

11:44 PM CST on December 09, 2019 (GMT -0600)
Key

Weather History for KMEI - August, 2019

Change the Weather History Date:

Monday, August 26, 2019

  Actual Average Record
Temperature  
Mean Temperature 78 °F 80 °F  
Max Temperature 82 °F 91 °F 104 °F (1943)
Min Temperature 75 °F 68 °F 56 °F (1966)
Degree Days  
Heating Degree Days 0 0  
Month to date heating degree days 0 0  
Since 1 June heating degree days 0 0  
Since 1 July heating degree days 0 0  
Cooling Degree Days 14 15  
Month to date cooling degree days 489 404  
Year to date cooling degree days 2004 1551  
Since 1 June cooling degree days 1508 1268  
Growing Degree Days 28 (Base 50)    
Moisture  
Dew Point 73 °F    
Average Humidity 89    
Maximum Humidity 94    
Minimum Humidity 74    
Precipitation  
Precipitation 0.43 in 0.11 in 1.15 in (1920)
Month to date precipitation 4.21 3.45  
Year to date precipitation 42.79 38.42  
Sea Level Pressure  
Sea Level Pressure 29.89 in    
Wind  
Wind Speed 6 mph ()    
Max Wind Speed 16 mph    
Max Gust Speed 20 mph    
Visibility 8.9 miles    
Events Rain    
T = Trace of Precipitation, MM = Missing Value Source: Averaged Metar Reports

Daily Weather History Graph

Daily Weather History Graph

Search for Another Location

Airport or City:

Astronomy

Aug. 26, 2019 Rise Set
Actual Time 6:26 AM CDT 7:27 PM CDT
Civil Twilight 6:00 AM CDT 7:52 PM CDT
Nautical Twilight 5:30 AM CDT 8:22 PM CDT
Astronomical Twilight 4:59 AM CDT 8:52 PM CDT
Moon 2:03 AM CDT (8/26) 4:37 PM CDT (8/26)
Length of Visible Light 13h 51m
Length of Day
13h 00m
Waning Crescent, 19% of the Moon is Illuminated
Aug 26
Waning Crescent
Aug 30
New
Sep 5
First Quarter
Sep 13
Full
Sep 21
Last Quarter

Hourly Weather History & Observations

Time (CDT) Temp. Heat Index Dew Point Humidity Pressure Visibility Wind Dir Wind Speed Gust Speed Precip Events Conditions
12:12 AM 75.9 °F - 73.0 °F 91% 29.93 in 10.0 mi SSE 3.5 mph - 0.01 in Rain Light Rain
12:19 AM 75.9 °F - 73.0 °F 91% 29.93 in 10.0 mi Variable 3.5 mph - 0.01 in Rain Light Rain
12:46 AM 75.9 °F - 73.0 °F 91% 29.92 in 10.0 mi SSE 5.8 mph - 0.01 in   Overcast
12:58 AM 75.9 °F - 73.0 °F 91% 29.91 in 10.0 mi SSE 5.8 mph - 0.01 in   Overcast
1:58 AM 75.9 °F - 73.0 °F 91% 29.88 in 10.0 mi SE 5.8 mph - 0.02 in Rain Light Rain
2:58 AM 75.9 °F - 72.0 °F 87% 29.88 in 10.0 mi SSE 6.9 mph - 0.01 in Rain Light Rain
3:58 AM 75.0 °F - 72.0 °F 90% 29.87 in 10.0 mi SSE 4.6 mph - 0.00 in   Mostly Cloudy
4:03 AM 75.0 °F - 72.0 °F 90% 29.88 in 10.0 mi South 5.8 mph - N/A   Mostly Cloudy
4:25 AM 75.0 °F - 72.0 °F 90% 29.89 in 10.0 mi SSE 6.9 mph - N/A   Overcast
4:33 AM 75.0 °F - 72.0 °F 90% 29.88 in 10.0 mi SSE 6.9 mph - N/A   Overcast
4:58 AM 75.0 °F - 72.0 °F 90% 29.88 in 10.0 mi SSE 5.8 mph - N/A   Overcast
5:58 AM 75.0 °F - 72.0 °F 90% 29.89 in 8.0 mi South 4.6 mph - 0.03 in Rain Light Rain
6:19 AM 75.0 °F - 73.0 °F 94% 29.90 in 7.0 mi Calm Calm - 0.03 in Rain Rain
6:58 AM 75.0 °F - 73.0 °F 94% 29.89 in 8.0 mi Calm Calm - 0.08 in Rain Light Rain
7:48 AM 75.0 °F - 73.0 °F 94% 29.90 in 5.0 mi SSE 4.6 mph - 0.07 in Rain Rain
7:55 AM 75.2 °F - 73.4 °F 94% 29.90 in 4.0 mi SSE 8.1 mph - 0.09 in Rain Rain
7:58 AM 75.0 °F - 73.0 °F 94% 29.89 in 4.0 mi SSE 9.2 mph - 0.10 in Rain Rain
8:58 AM 75.9 °F - 73.0 °F 91% 29.88 in 10.0 mi South 9.2 mph - 0.10 in Rain Light Rain
9:19 AM 75.9 °F - 73.0 °F 91% 29.89 in 10.0 mi SSE 10.4 mph - 0.00 in Rain Light Rain
9:31 AM 75.9 °F - 73.0 °F 91% 29.89 in 8.0 mi South 9.2 mph - 0.01 in Rain Rain
9:58 AM 75.9 °F - 73.0 °F 91% 29.87 in 8.0 mi South 9.2 mph - 0.02 in Rain Light Rain
10:05 AM 75.9 °F - 73.0 °F 91% 29.88 in 10.0 mi SSE 12.7 mph - 0.01 in Rain Light Rain
10:43 AM 75.9 °F - 73.0 °F 91% 29.89 in 8.0 mi South 15.0 mph - 0.06 in Rain Light Rain
10:58 AM 77.0 °F - 73.9 °F 90% 29.88 in 9.0 mi South 11.5 mph - 0.06 in Rain Light Rain
11:58 AM 77.0 °F - 73.9 °F 90% 29.90 in 10.0 mi SSW 13.8 mph - 0.00 in   Overcast
12:58 PM 77.0 °F - 73.9 °F 90% 29.89 in 10.0 mi South 8.1 mph - N/A   Overcast
1:58 PM 78.1 °F - 73.9 °F 87% 29.88 in 10.0 mi South 8.1 mph - 0.00 in   Overcast
2:58 PM 79.0 °F - 75.0 °F 88% 29.86 in 10.0 mi South 5.8 mph - N/A   Mostly Cloudy
3:13 PM 79.0 °F - 73.9 °F 84% 29.87 in 10.0 mi South 6.9 mph - N/A   Overcast
3:44 PM 81.0 °F 86.7 °F 75.0 °F 82% 29.87 in 10.0 mi South 9.2 mph - N/A   Mostly Cloudy
3:58 PM 81.0 °F 86.2 °F 73.9 °F 79% 29.86 in 10.0 mi SW 6.9 mph - N/A   Overcast
4:30 PM 82.0 °F 87.9 °F 73.9 °F 76% 29.87 in 10.0 mi SSW 9.2 mph - N/A   Partly Cloudy
4:58 PM 82.0 °F 87.9 °F 73.9 °F 76% 29.86 in 10.0 mi SSW 6.9 mph - N/A   Scattered Clouds
5:58 PM 81.0 °F 86.7 °F 75.0 °F 82% 29.86 in 10.0 mi SSW 4.6 mph - N/A   Scattered Clouds
6:58 PM 80.1 °F 85.1 °F 75.0 °F 85% 29.88 in 10.0 mi SW 4.6 mph - N/A   Clear
7:58 PM 79.0 °F - 75.0 °F 88% 29.89 in 10.0 mi Calm Calm - N/A   Scattered Clouds
8:58 PM 77.0 °F - 73.9 °F 90% 29.90 in 9.0 mi Calm Calm - N/A   Clear
9:58 PM 77.0 °F - 73.9 °F 90% 29.91 in 8.0 mi SW 3.5 mph - N/A   Clear
10:58 PM 75.9 °F - 73.9 °F 94% 29.91 in 7.0 mi South 5.8 mph - N/A   Clear
11:05 PM 77.0 °F - 73.9 °F 90% 29.92 in 7.0 mi South 5.8 mph - N/A   Scattered Clouds
11:13 PM 77.0 °F - 73.9 °F 90% 29.92 in 7.0 mi South 4.6 mph - N/A   Mostly Cloudy
11:42 PM 77.0 °F - 75.0 °F 94% 29.92 in 8.0 mi South 11.5 mph - N/A   Overcast
11:58 PM 77.0 °F - 75.0 °F 94% 29.90 in 9.0 mi South 8.1 mph - N/A   Overcast